Showing default

FORMOSAT7-4/COSMIC2-4, 44350

Orbit data source: Space-Track

FORMOSAT7-4/COSMIC2-4, 44350 is a payload satellite owned by NSPO (TW) in LEO that was launched on Tue, 25 Jun 2019 UTC via an FALCON HEAVY launch vehicle from the Air Force Eastern Test Range (AFETR). Payload-class satellites include a variety of spacecraft equipped with specific instruments for various scientific and technological missions. These include communications satellites like Starlink; space stations such as the ISS; scientific satellites like the Hubble; Earth observation satellites from companies like Planet Labs, Umbra, and HawkEye 360; GPS; miniature CubeSats for education and research; and military/defense satellites.

Not visible in the next 10 days
Identifier
44350, 2019-036M
Orbit
LEO
Country
Flag of TWTW / TWN
Related business
Manufacturer
SSTL (Astrium)
Mission
Operational Civil Weather
Bus & Motor
SSTL-100, Unknown motor
Mass
278 kg wet, 278 kg dry
Launch date (UTC)
2019-06-25 (6 years ago)
Launch vehicle
FALCON HEAVY
Launch site
Air Force Eastern Test Range (AFETR)
Object type
Payload
Rocket body
Debris
Shape & HBR
Box + 1 Pan, 1.5 m
Radar Cross Section
2.189 m², Large (>1 m²)

Expand to show TLE details & history
Last TLE update: 2 days ago

TLE from 2 days ago
0 FORMOSAT7-4/COSMIC2-4
1 44350U 19036M   25259.99489878  .00003585  00000-0  27448-3 0  9999
2 44350  23.9981 137.9067 0001247  14.9116 345.1422 14.97513375343083
Epoch: 2025-09-16T23:52Z
TLE epoch observation values (Epoch: 2025-09-16T23:52:39.254Z)
Latitude
Longitude
143.56594°
Altitude
571.633 km
Speed
7.578 km/s
True Right ascension
09h 11m 37s
True Declination
0° 00' 00"
Sunlit
Object was in daylight at epoch
Visualization orbit readout
Latitude
Unknown
Longitude
Unknown
Altitude
Unknown
Speed
Unknown
Apparent Right ascension
Unknown
Apparent Declination
Unknown
Sunlit
N/A
Visualization observer readout
Local Sidereal Time
10:43:05
Azimuth
Unknown
Elevation
Unknown
Doppler factor
Unknown
Orbital elements
Apogee altitude
580.219 km
Perigee altitude
578.484 km
Semi-major axis
6,957.489 km
Eccentricity
0.00012
Inclination
23.9981°
RAAN
137.9067°
Arg. of periapsis
14.9116°
True anomaly
345.13854°
Mean anomaly
345.1422°
Eccentric anomaly
345.14037°
Mean motion
3.73994 °/min
Orbital period
96.26 mins
BSTAR
0.00027448
Loading maneuver chart data...
Computing Atmospheric mass density...
Loading historical data...
Loading historical data...
Loading historical data...
Loading historical data...
Loading historical data...
Loading historical data...
Loading historical data...

Documentation

Showing up to 5 results
|